FW6834 Weather Reports


Display with metric or nautical units.
time (UTC)temp
F
wind
direction
speed
MPH
gust
MPH
rain 1hr
in
rain 24hr
in
rain mn
in
humidity
%
barometer
mb
20260504222602 82 169 14.0 14.0 0.00 0.00 0.00 49 1042.3
20260504221103 82 229 6.0 16.0 0.00 0.00 0.00 49 1042.7
20260504215602 81 205 11.0 14.0 0.00 0.00 0.00 48 1042.7
20260504214102 82 168 19.0 19.0 0.00 0.00 0.00 47 1042.7
20260504212602 82 190 7.0 14.0 0.00 0.00 0.00 47 1043.0
20260504205602 82 345 14.0 19.0 0.00 0.00 0.00 45 1043.3
20260504204602 82 168 8.0 21.0 0.00 0.00 0.00 44 1043.7
20260504203102 83 187 9.0 19.0 0.00 0.00 0.00 43 1043.7
20260504201602 83 231 17.0 18.0 0.00 0.00 0.00 43 1044.0
20260504194603 83 182 8.0 20.0 0.00 0.00 0.00 43 1044.4
20260504191602 82 277 13.0 17.0 0.00 0.00 0.00 42 1045.0
20260504184602 81 213 6.0 20.0 0.00 0.00 0.00 43 1045.4
20260504183102 80 177 7.0 22.0 0.00 0.00 0.00 44 1045.7
20260504174602 81 205 15.0 18.0 0.00 0.00 0.00 42 1046.4
20260504173102 81 124 14.0 15.0 0.00 0.00 0.00 42 1046.4
20260504171602 79 175 17.0 17.0 0.00 0.00 0.00 42 1046.4
20260504140103 69 226 12.0 20.0 0.00 0.00 0.00 50 1048.1
20260504100103 65 210 7.0 14.0 0.00 0.00 0.00 50 1048.4
20260504081603 67 262 9.0 15.0 0.00 0.00 0.00 45 1049.4
20260504050103 70 161 7.0 15.0 0.00 0.00 0.00 40 1051.5
20260504044602 70 210 12.0 17.0 0.00 0.00 0.00 39 1051.5
20260504043102 70 290 10.0 14.0 0.00 0.00 0.00 39 1051.5
20260504041602 71 216 12.0 20.0 0.00 0.00 0.00 38 1051.5
20260504040103 71 212 7.0 16.0 0.00 0.00 0.00 38 1051.8
20260504034602 72 167 11.0 14.0 0.00 0.00 0.00 37 1051.8
20260504033102 72 201 12.0 14.0 0.00 0.00 0.00 36 1051.8
20260504031603 73 208 13.0 16.0 0.00 0.00 0.00 36 1051.8
20260504024602 74 172 7.0 12.0 0.00 0.00 0.00 35 1051.8
20260504023602 74 176 9.0 16.0 0.00 0.00 0.00 35 1051.5
20260504013602 76 194 13.0 17.0 0.00 0.00 0.00 31 1051.5
20260504010603 77 231 14.0 17.0 0.00 0.00 0.00 29 1051.1
20260504005102 79 191 14.0 14.0 0.00 0.00 0.00 27 1051.5
20260504002102 81 123 6.0 14.0 0.00 0.00 0.00 25 1051.5
20260504000602 83 182 8.0 13.0 0.00 0.00 0.00 24 1051.8
20260503235102 83 13 10.0 16.0 0.00 0.00 0.00 24 1051.8
20260503233602 83 184 13.0 13.0 0.00 0.00 0.00 22 1051.8
20260503232602 83 173 8.0 16.0 0.00 0.00 0.00 23 1051.8
20260503231102 84 277 11.0 15.0 0.00 0.00 0.00 23 1051.8
20260503225602 84 273 11.0 16.0 0.00 0.00 0.00 22 1051.8
20260503224103 86 208 6.0 11.0 0.00 0.00 0.00 22 1052.2